Le nostre stazioni meteo in Italia

Pubblicità
Il mio iltempo24.it
Bolzano, Italia (16020): Temperatura & dewpoint: 15.04.2019 09:00:00 - 21.04.2019 09:00:00 (CEST)Bolzano, Italia (16020): velocità del vento: 15.04.2019 09:00:00 - 21.04.2019 09:00:00 (CEST)Bolzano, Italia (16020): direzione del vento: 15.04.2019 09:00:00 - 21.04.2019 09:00:00 (CEST)Bolzano, Italia (16020): reduced air pressure: 15.04.2019 09:00:00 - 21.04.2019 09:00:00 (CEST)Bolzano, Italia (16020): visibility: 15.04.2019 09:00:00 - 21.04.2019 09:00:00 (CEST)Bolzano, Italia (16020): precipitazioni: 15.04.2019 09:00:00 - 21.04.2019 09:00:00 (CEST)
Data & Tempo tt [°C] td [°C] ff [km/h] ff [kn] dd ppp [hPa] vv [km] rr [mm]
21.04.2019 09:00:00 12,0 6,0 0 0 N - 10 -
21.04.2019 08:00:00 10,7 6,0 4 2 - 1024,7 10 0,0
21.04.2019 07:00:00 9,0 5,0 0 0 N - 10 -
21.04.2019 06:00:00 - - - - - - - -
21.04.2019 05:00:00 9,3 5,6 2 1 SSO 1025,0 - -
21.04.2019 04:00:00 - - - - - - - -
21.04.2019 03:00:00 - - - - - - - -
21.04.2019 02:00:00 11,4 5,5 2 1 OSO 1025,5 - 0,0
21.04.2019 01:00:00 - - - - - - - -
21.04.2019 00:00:00 - - - - - - - -
20.04.2019 23:00:00 13,6 5,4 4 2 - 1024,9 10 -
20.04.2019 22:00:00 16,0 5,0 0 0 N - 10 -
20.04.2019 21:00:00 20,0 3,0 11 6 S - 10 -
20.04.2019 20:00:00 21,2 1,7 8 4 SSE 1022,0 10 0,0
20.04.2019 19:00:00 24,0 5,0 8 4 S - 10 -
20.04.2019 18:00:00 25,0 6,0 9 5 SSO - 10 -
20.04.2019 17:00:00 25,4 2,6 8 4 S 1022,2 10 -
20.04.2019 16:00:00 25,0 3,0 5 3 - - 10 -
20.04.2019 15:00:00 25,0 4,0 4 2 - - 10 -
20.04.2019 14:00:00 22,6 5,7 8 4 SSO 1025,2 10 0,0
20.04.2019 13:00:00 21,0 6,0 4 2 - - 10 -
20.04.2019 12:00:00 18,0 4,0 4 2 - - 10 -
20.04.2019 11:00:00 17,0 5,0 4 2 - 1028,8 10 -
20.04.2019 10:00:00 14,0 5,0 4 2 - - 10 -
20.04.2019 09:00:00 13,0 5,0 0 0 N - 10 -
20.04.2019 08:00:00 7,7 4,9 4 2 - 1031,4 10 0,0
20.04.2019 07:00:00 7,0 5,0 2 1 - - 10 -
20.04.2019 06:00:00 - - - - - - - -
20.04.2019 05:00:00 8,4 4,8 2 1 OSO 1030,4 - -
20.04.2019 04:00:00 - - - - - - - -
20.04.2019 03:00:00 - - - - - - - -
20.04.2019 02:00:00 10,8 5,9 2 1 E 1030,0 - 0,0
20.04.2019 01:00:00 - - - - - - - -
20.04.2019 00:00:00 - - - - - - - -
19.04.2019 23:00:00 14,5 5,9 5 3 - 1028,5 10 -
19.04.2019 22:00:00 17,0 5,0 9 5 S - 10 -
19.04.2019 21:00:00 18,0 4,0 13 7 SSE - 10 -
19.04.2019 20:00:00 19,0 3,3 11 6 SSE 1025,6 10 0,0
19.04.2019 19:00:00 22,0 4,0 9 5 S - 10 -
19.04.2019 18:00:00 24,0 2,0 9 5 S - 10 -
19.04.2019 17:00:00 23,9 0,5 8 4 S 1024,8 10 -
19.04.2019 16:00:00 24,0 0,0 8 4 S - 10 -
19.04.2019 15:00:00 23,0 3,0 13 7 - - 10 -
19.04.2019 14:00:00 22,4 4,1 0 0 N 1027,0 10 0,0
19.04.2019 13:00:00 20,0 8,0 5 3 - - 10 -
19.04.2019 12:00:00 19,0 7,0 5 3 - - 10 -
19.04.2019 11:00:00 17,6 7,2 2 1 - 1029,9 10 -
19.04.2019 10:00:00 15,0 8,0 2 1 - - 10 -
19.04.2019 09:00:00 14,0 8,0 2 1 - - 10 -
19.04.2019 08:00:00 11,6 8,1 2 1 - 1030,8 10 0,0
19.04.2019 07:00:00 11,0 8,0 2 1 - - 10 -
19.04.2019 06:00:00 - - - - - - - -
19.04.2019 05:00:00 11,2 8,0 2 1 N 1029,4 - -
19.04.2019 04:00:00 - - - - - - - -
19.04.2019 03:00:00 - - - - - - - -
19.04.2019 02:00:00 11,4 8,2 2 1 S 1029,0 - 0,0
19.04.2019 01:00:00 - - - - - - - -
19.04.2019 00:00:00 - - - - - - - -
18.04.2019 23:00:00 14,3 8,5 0 0 N 1027,5 10 -
18.04.2019 22:00:00 15,0 8,0 5 3 - - 10 -
18.04.2019 21:00:00 16,0 8,0 0 0 N - 10 -
18.04.2019 20:00:00 15,8 8,3 13 7 E 1024,9 10 0,0
18.04.2019 19:00:00 19,0 6,0 13 7 SE - 10 -
18.04.2019 18:00:00 20,0 5,0 18 10 SSE - 10 -
18.04.2019 17:00:00 21,9 4,4 13 7 S 1021,6 10 -
18.04.2019 16:00:00 23,0 5,0 11 6 SSE - 10 -
18.04.2019 15:00:00 22,0 5,0 11 6 S - 10 -
18.04.2019 14:00:00 21,7 3,9 11 6 S 1022,2 10 0,0
18.04.2019 13:00:00 20,0 5,0 5 3 - - 10 -
18.04.2019 12:00:00 18,0 5,0 4 2 - - 10 -
18.04.2019 11:00:00 17,0 6,0 2 1 - 1024,5 10 -
18.04.2019 10:00:00 15,0 5,0 2 1 - - 10 -
18.04.2019 09:00:00 13,0 6,0 2 1 - - 10 -
18.04.2019 08:00:00 10,5 6,1 2 1 - 1025,5 10 0,0
18.04.2019 07:00:00 10,0 6,0 2 1 - - 10 -
18.04.2019 06:00:00 - - - - - - - -
18.04.2019 05:00:00 10,5 5,6 0 0 N 1024,3 - -
18.04.2019 04:00:00 - - - - - - - -
18.04.2019 03:00:00 - - - - - - - -
18.04.2019 02:00:00 11,6 4,6 2 1 NNO 1023,6 - 0,0
18.04.2019 01:00:00 - - - - - - - -
18.04.2019 00:00:00 - - - - - - - -
17.04.2019 23:00:00 12,6 4,7 0 0 N 1021,7 10 -
17.04.2019 22:00:00 16,0 4,0 4 2 SSE - 10 -
17.04.2019 21:00:00 17,0 4,0 9 5 S - 10 -
17.04.2019 20:00:00 18,7 3,1 11 6 S 1018,3 10 0,0
17.04.2019 19:00:00 21,0 4,0 13 7 S - 10 -
17.04.2019 18:00:00 21,0 3,0 5 3 - - 10 -
17.04.2019 17:00:00 22,4 0,8 8 4 SSO 1016,5 10 -
17.04.2019 16:00:00 23,0 -1,0 0 0 N - 10 -
17.04.2019 15:00:00 23,0 2,0 8 4 S - 10 -
17.04.2019 14:00:00 21,5 4,2 4 2 SSE 1018,0 10 0,0
17.04.2019 13:00:00 18,0 4,0 4 2 - - 10 -
17.04.2019 12:00:00 17,0 3,0 4 2 - - 10 -
17.04.2019 11:00:00 15,9 3,1 2 1 - 1021,6 10 -
17.04.2019 10:00:00 12,0 5,0 5 3 ENE - 10 -
17.04.2019 09:00:00 10,0 5,0 4 2 - - 10 -
17.04.2019 08:00:00 6,5 3,4 0 0 N 1023,4 10 0,0
17.04.2019 07:00:00 8,0 4,0 2 1 - - 10 -
17.04.2019 06:00:00 - - - - - - - -
17.04.2019 05:00:00 6,4 3,6 4 2 ESE 1022,6 - -
17.04.2019 04:00:00 - - - - - - - -
17.04.2019 03:00:00 - - - - - - - -
17.04.2019 02:00:00 8,3 3,9 4 2 ENE 1022,0 - 0,0
17.04.2019 01:00:00 - - - - - - - -
17.04.2019 00:00:00 - - - - - - - -
16.04.2019 23:00:00 10,1 4,3 4 2 SSE 1020,6 10 -
16.04.2019 22:00:00 14,0 4,0 5 3 NO - 10 -
16.04.2019 21:00:00 16,0 3,0 15 8 SSE - 10 -
16.04.2019 20:00:00 15,5 2,9 9 5 S 1018,1 10 0,0
16.04.2019 19:00:00 17,0 5,0 9 5 S - 10 -
16.04.2019 18:00:00 19,0 4,0 13 7 S - 10 -
16.04.2019 17:00:00 18,9 3,1 16 9 S 1016,6 10 -
16.04.2019 16:00:00 19,0 3,0 13 7 S - 10 -
16.04.2019 15:00:00 20,0 2,0 11 6 S - 10 -
16.04.2019 14:00:00 19,3 4,4 5 3 - 1017,3 10 0,0
16.04.2019 13:00:00 17,0 3,0 5 3 - - 10 -
16.04.2019 12:00:00 16,0 6,0 8 4 SSE - 10 -
16.04.2019 11:00:00 14,4 4,7 4 2 - 1020,0 10 -
16.04.2019 10:00:00 12,0 5,0 0 0 N - 10 -
16.04.2019 09:00:00 9,0 5,0 4 2 - - 10 -
16.04.2019 08:00:00 6,1 4,7 2 1 - 1021,6 10 0,0
16.04.2019 07:00:00 6,0 5,0 2 1 - - 10 -
16.04.2019 06:00:00 - - - - - - - -
16.04.2019 05:00:00 6,8 5,0 2 1 S 1020,8 - -
16.04.2019 04:00:00 - - - - - - - -
16.04.2019 03:00:00 - - - - - - - -
16.04.2019 02:00:00 6,3 3,8 2 1 SSO 1021,3 - 0,0
16.04.2019 01:00:00 - - - - - - - -
16.04.2019 00:00:00 - - - - - - - -
15.04.2019 23:00:00 9,0 4,4 0 0 N 1020,1 10 -
15.04.2019 22:00:00 11,0 4,0 4 2 - - 10 -
15.04.2019 21:00:00 15,0 4,0 11 6 SSE - 10 -
15.04.2019 20:00:00 14,6 4,0 9 5 SSE 1017,8 10 0,0
15.04.2019 19:00:00 16,0 4,0 16 9 S - 10 -
15.04.2019 18:00:00 17,0 4,0 16 9 S - 10 -
15.04.2019 17:00:00 19,5 2,2 15 8 S 1016,5 10 -
15.04.2019 16:00:00 19,0 2,0 13 7 S - 10 -
15.04.2019 15:00:00 19,0 1,0 11 6 SSE - 10 -
15.04.2019 14:00:00 17,9 1,9 9 5 S 1018,2 10 0,0
15.04.2019 13:00:00 17,0 1,0 5 3 - - 10 -
15.04.2019 12:00:00 16,0 1,0 4 2 - - 10 -
15.04.2019 11:00:00 13,7 1,6 4 2 - 1020,6 10 -
15.04.2019 10:00:00 12,0 3,0 4 2 - - 10 -
15.04.2019 09:00:00 8,0 5,0 2 1 - - 10 -

tt = Temperatura
td = dewpoint
ff = velocità del vento
dd = direzione del vento
ppp = reduced air pressure
vv = visibility
rr = precipitazioni

Stazioni seguenti

WeatherPro
AMSI
MeteoEarth